Lapse_Rate
7.4 7.4 7.4 7.4 7.5 7.6 7.8 7.9 8.1 8.1 7.9 7.9 7.8 7.5 7.5 7.3 7.1 7.0 6.8 6.9 6.9 6.8 6.8 6.8 6.7 6.8 6.8 6.7 6.6 6.5 6.4 6.3 6.2 6.2 6.3 6.3 6.2 6.1 6.1 6.1 6.2 6.3 6.3
7.5 7.5 7.4 7.4 7.2 7.4 7.5 7.6 7.9 8.0 8.0 7.8 7.8 7.6 7.5 7.4 7.1 6.9 6.8 6.8 6.8 6.8 6.9 6.8 6.6 6.5 6.5 6.4 6.3 6.4 6.3 6.2 6.2 6.2 6.2 6.1 6.1 6.1 6.1 6.2 6.2 6.3 6.4
7.6 7.4 7.4 7.4 7.6 7.6 7.5 7.4 7.4 7.8 7.9 7.9 7.7 7.7 7.5 7.4 7.3 7.1 6.9 6.7 6.7 6.8 6.8 6.5 6.3 6.4 6.3 6.2 6.1 6.2 6.1 6.1 6.1 6.1 6.1 6.1 6.1 6.1 6.1 6.1 6.2 6.1 6.2
7.7 7.5 7.6 7.5 7.1 7.7 7.4 7.3 7.4 7.4 7.8 7.9 7.6 7.6 7.6 7.3 7.2 7.2 7.0 6.9 6.7 6.7 6.7 6.6 6.5 6.4 6.3 6.2 6.1 6.1 6.0 6.0 6.1 6.0 6.0 6.0 6.0 6.0 6.1 6.1 6.2 6.1 6.2
7.6 7.4 7.4 7.3 7.4 7.4 7.5 7.2 7.2 7.3 7.4 7.7 7.6 7.5 7.4 7.3 7.1 7.0 7.0 6.9 6.8 6.8 6.7 6.6 6.6 6.5 6.4 6.4 6.2 6.2 6.1 6.0 6.0 6.1 6.1 5.9 5.8 6.0 6.0 6.1 6.1 6.1 6.1
7.6 7.5 7.6 7.6 7.6 7.3 7.3 7.1 7.0 7.2 7.0 7.4 7.4 7.3 7.2 7.3 7.2 6.9 6.9 7.0 6.8 6.8 6.8 6.7 6.6 6.5 6.5 6.5 6.5 6.4 6.2 6.1 6.1 6.1 6.0 6.0 6.0 5.9 5.9 6.0 6.0 6.0 6.1
7.8 7.7 7.6 7.3 7.5 7.4 7.1 7.2 6.9 7.0 7.1 7.0 7.2 7.2 7.2 7.2 7.1 6.9 7.0 7.2 7.2 7.0 6.9 6.8 6.7 6.5 6.5 6.6 6.6 6.6 6.4 6.2 6.1 6.1 6.1 6.1 6.0 6.0 5.9 5.8 5.8 6.0 6.0
7.9 7.8 7.8 7.5 7.5 7.5 7.2 7.2 7.2 6.9 7.0 7.1 7.1 7.3 7.2 7.2 7.1 7.1 7.3 7.1 7.1 7.1 7.1 6.9 6.8 6.6 6.5 6.5 6.6 6.7 6.5 6.3 6.2 6.1 6.0 6.0 6.0 6.0 5.9 6.0 5.9 5.9 5.9
7.9 8.0 8.0 7.8 7.8 7.6 7.4 7.2 7.3 7.2 7.1 7.1 7.2 7.2 7.2 7.5 7.5 7.3 7.2 7.3 7.0 7.0 7.0 7.0 6.9 6.7 6.6 6.7 6.7 6.6 6.5 6.5 6.4 6.2 6.1 6.1 6.0 6.1 6.0 6.0 6.0 5.9 6.0
7.7 8.0 8.0 8.0 8.1 7.9 7.6 7.4 7.4 7.1 6.8 7.1 7.1 7.1 6.9 7.3 7.2 7.5 7.3 7.2 7.0 6.9 6.9 6.9 6.9 6.8 6.8 6.8 6.7 6.6 6.5 6.5 6.3 6.2 6.1 6.1 6.1 6.1 6.0 6.1 6.1 6.1 6.1
7.8 8.1 7.9 8.0 8.0 8.0 7.8 7.6 7.4 7.2 7.0 6.8 6.9 7.2 7.0 7.2 7.2 7.4 7.6 7.4 7.2 7.3 7.1 6.8 6.6 6.6 6.7 6.8 6.8 6.7 6.6 6.4 6.2 6.1 6.1 6.1 6.0 6.1 6.1 6.2 6.2 6.1 6.1
7.4 7.7 7.9 8.0 8.1 8.1 7.9 7.9 7.4 7.3 7.1 7.0 6.8 6.8 6.8 7.0 7.3 7.3 7.4 7.3 7.3 7.1 7.0 6.7 6.5 6.5 6.5 6.7 6.7 6.6 6.4 6.4 6.2 6.0 6.0 6.1 6.1 6.1 6.0 6.1 6.0 5.9 5.9
6.8 7.3 7.7 7.9 8.0 8.1 8.0 8.0 7.7 7.5 7.3 7.0 6.9 6.9 6.9 6.8 7.1 7.2 7.2 7.0 6.9 7.0 6.7 6.5 6.4 6.4 6.5 6.6 6.6 6.4 6.2 6.1 6.1 5.9 5.9 6.0 6.1 6.0 6.1 5.9 5.7 5.8 5.8
6.8 7.0 7.2 7.4 7.6 7.7 7.8 7.8 7.8 7.3 7.1 7.0 6.9 6.8 6.9 6.9 6.8 6.9 6.9 7.0 7.1 7.0 6.9 6.8 6.6 6.5 6.5 6.5 6.2 6.0 6.0 5.7 5.6 5.7 5.8 5.7 5.8 5.9 5.8 5.8 5.7 5.9 5.9
6.6 6.6 6.8 6.9 7.2 7.2 7.3 7.3 7.2 7.3 6.8 6.8 7.1 7.0 6.9 7.0 6.9 6.8 6.7 6.9 6.7 6.8 7.2 7.1 6.8 6.6 6.3 6.1 6.0 5.8 5.6 5.4 5.2 5.2 5.1 5.4 5.4 5.5 5.6 5.9 5.7 5.5 5.8
6.2 6.1 6.3 6.3 6.5 6.6 6.7 6.7 6.8 6.8 6.9 6.9 6.4 6.5 7.0 7.0 7.1 7.1 7.2 7.0 6.8 6.7 6.9 7.3 7.3 7.0 6.6 6.5 6.3 6.1 5.7 5.4 5.3 5.2 5.1 5.5 5.5 5.8 6.0 5.9 5.8 5.8 5.9
6.1 6.2 6.3 5.9 5.5 6.3 5.9 6.1 6.4 6.6 6.6 6.6 6.6 6.4 6.5 6.8 6.9 7.1 7.2 7.1 7.0 6.8 6.7 7.3 7.5 7.4 7.3 7.0 6.9 6.5 5.7 5.6 5.7 5.9 6.0 5.9 5.9 6.0 6.0 6.0 5.8 6.0 6.0
5.6 5.4 6.0 6.0 6.0 5.8 5.5 5.8 5.7 6.0 6.3 6.3 6.2 6.3 6.6 6.5 6.4 6.8 6.8 7.0 7.0 7.0 6.5 7.1 7.0 7.3 7.3 7.2 6.7 6.2 5.9 5.7 6.1 5.9 5.7 5.9 6.0 6.5 6.5 6.2 5.9 6.0 6.2
6.0 5.7 6.0 6.0 6.0 5.9 5.9 5.9 4.8 5.2 5.5 5.6 6.2 6.0 6.0 6.0 6.2 6.3 6.5 6.8 6.7 6.6 6.4 6.4 6.2 6.6 6.8 6.8 6.8 6.7 6.6 6.0 5.7 6.1 5.9 5.8 5.8 5.9 6.0 6.1 5.5 5.8 5.6
6.1 6.1 6.2 6.4 6.0 6.0 6.0 5.6 5.3 5.7 5.9 5.2 5.2 5.7 5.8 5.8 5.4 5.8 5.9 6.0 6.2 6.1 6.0 6.0 6.2 6.0 6.1 6.6 6.4 6.2 6.3 6.1 6.1 6.1 5.8 6.1 6.1 5.7 5.8 6.0 6.0 6.0 5.2
6.0 6.0 5.7 5.8 6.2 6.1 5.8 5.6 5.7 5.1 5.7 5.4 5.6 5.9 5.8 5.6 5.6 5.4 5.2 5.2 6.0 6.2 6.4 6.0 5.9 5.9 6.1 6.2 6.1 6.1 5.7 5.8 5.8 6.0 6.1 6.1 5.8 5.9 5.8 5.9 5.8 5.5 5.7
5.6 5.7 5.4 5.7 5.9 5.8 5.5 5.5 5.4 5.7 5.4 5.5 5.6 6.1 5.4 6.0 5.9 5.9 5.8 5.7 5.4 6.0 6.2 6.1 5.7 5.6 6.2 5.8 6.1 5.8 5.8 5.7 5.9 5.7 5.6 6.1 6.1 6.1 6.2 6.1 5.8 5.8 5.0
4.2 4.4 4.7 4.5 5.0 5.6 5.6 5.8 5.4 5.3 5.0 5.0 5.6 5.6 5.7 5.6 5.9 6.0 6.1 5.6 5.4 5.5 5.9 5.9 5.9 6.0 5.6 6.1 6.0 5.9 5.8 5.7 5.8 5.7 5.8 5.3 5.3 5.3 4.9 5.3 5.3 4.9 5.0
3.7 4.1 4.5 3.8 4.0 4.6 5.3 5.7 5.7 5.5 5.6 5.3 5.3 5.5 5.4 5.6 5.3 5.9 5.7 5.6 5.4 5.7 5.8 5.6 6.1 6.1 6.1 6.4 6.3 6.2 5.6 5.2 5.8 5.7 5.6 5.3 5.4 5.4 5.2 5.2 5.1 5.0 5.0
3.3 3.1 3.2 3.5 4.1 4.0 4.3 4.8 5.1 5.2 5.5 6.0 5.6 5.5 5.5 5.6 5.9 5.9 5.9 5.6 5.4 5.6 5.6 5.9 6.1 6.3 6.2 6.0 5.8 5.7 5.3 5.5 5.5 5.7 5.4 5.4 5.7 5.2 5.0 5.1 5.1 5.2 5.4
4.1 3.9 4.0 4.1 4.6 4.5 4.2 4.1 4.9 5.3 5.0 5.3 5.4 5.2 5.3 5.3 5.4 5.6 5.8 5.9 6.0 5.8 5.7 5.6 6.2 6.1 5.8 5.9 5.8 5.6 5.5 5.5 5.3 5.3 5.6 5.2 5.2 5.0 4.6 5.2 5.3 5.4 5.3
Wind_Speed
10 13 11 13 15 14 14 12 13 12 12 13 13 15 13 14 17 18 19 17 17 16 16 16 15 14 13 12 12 10 9 8 9 8 8 9 9 9 10 9 8 7 7
13 10 10 10 11 13 12 13 12 10 8 12 9 11 12 13 15 18 18 18 16 16 16 16 15 14 14 13 13 12 11 10 10 9 9 8 7 7 8 7 7 9 11
20 15 10 10 11 14 14 14 11 11 6 7 6 10 12 13 12 15 17 19 18 16 16 15 15 15 14 14 14 13 12 12 12 11 11 11 11 11 12 11 12 12 12
24 17 11 10 17 15 11 8 7 6 5 5 4 4 6 10 11 12 15 17 19 18 16 17 16 16 16 15 14 13 12 12 12 12 11 11 11 11 11 11 11 12 12
24 17 11 11 20 13 9 8 6 8 7 4 5 4 3 3 8 11 11 14 18 19 18 17 16 15 15 14 14 13 14 12 12 12 12 11 11 11 11 10 10 10 10
23 16 10 11 18 10 9 9 11 4 6 7 5 4 3 2 4 6 10 12 15 17 19 18 19 17 17 15 15 15 14 14 13 13 13 12 12 11 10 10 11 11 10
22 15 12 12 12 13 13 13 9 12 4 6 5 3 3 2 2 3 6 8 10 15 18 20 20 18 18 17 16 16 15 15 15 14 13 13 12 12 12 11 11 11 11
20 16 15 14 16 12 13 14 13 8 3 11 4 5 3 2 2 4 3 4 7 11 13 17 19 19 21 19 19 18 18 17 17 16 15 15 14 14 12 12 11 11 11
19 19 19 15 15 14 13 14 14 16 9 9 9 5 3 5 2 3 7 5 6 5 11 13 16 18 21 22 22 21 20 20 19 18 17 16 16 15 15 14 13 13 12
20 20 18 17 17 12 15 15 13 12 11 14 5 5 2 5 4 2 2 6 6 8 7 10 13 16 19 21 24 25 25 22 22 20 20 19 18 17 16 16 16 16 15
18 19 18 19 17 13 14 16 16 15 13 10 12 10 2 1 2 3 3 4 5 7 8 12 14 16 18 21 21 23 30 27 25 23 22 21 20 19 19 19 19 19 18
12 19 19 17 17 16 16 15 16 17 16 12 11 10 10 4 3 3 2 3 6 6 8 10 12 14 18 20 22 25 33 33 31 27 26 24 24 22 22 21 21 20 20
11 16 19 17 16 18 17 16 16 17 17 16 16 13 11 10 3 3 4 2 2 2 4 7 13 16 17 20 22 27 32 37 35 34 30 29 28 26 25 23 23 22 22
13 16 17 15 18 18 17 16 14 15 16 15 18 15 12 11 8 4 5 5 2 2 2 4 9 17 21 24 27 31 28 39 41 39 36 34 32 32 30 28 27 25 25
11 13 15 14 14 15 16 17 13 15 16 17 17 16 13 11 11 9 8 5 8 5 8 6 5 17 21 22 26 26 28 30 42 44 42 40 39 37 36 35 30 27 26
17 16 13 10 13 14 15 16 14 15 16 13 13 17 16 12 11 10 10 10 9 11 9 8 10 6 19 20 24 27 28 30 38 45 44 43 42 42 42 37 36 33 29
7 12 15 17 16 16 16 15 17 15 16 16 15 17 18 19 12 11 10 12 11 11 12 6 6 9 11 13 15 24 24 25 26 40 43 45 46 47 43 42 41 37 33
9 6 5 8 13 16 15 16 15 12 15 17 17 17 18 12 17 13 11 14 13 13 12 15 4 5 9 13 12 12 18 23 24 30 42 44 45 44 44 44 44 42 39
9 8 8 7 6 4 5 12 14 14 13 13 17 17 18 17 16 13 12 13 12 11 11 10 9 2 3 6 7 7 11 15 22 27 36 40 41 41 41 44 44 46 43
9 8 6 7 6 4 7 4 6 14 14 14 13 14 13 10 13 14 11 13 12 11 10 10 11 4 2 3 4 8 6 7 9 16 21 28 32 35 38 42 44 42 43
6 3 5 8 1 6 5 5 5 4 14 15 18 19 18 19 21 18 12 14 14 12 10 10 10 7 3 3 9 5 8 5 7 6 7 8 16 21 25 37 39 43 43
2 7 2 6 3 5 5 7 7 5 5 3 14 15 14 13 17 19 19 18 17 17 16 10 10 10 13 10 7 8 5 3 3 7 8 7 14 10 19 29 40 44 46
4 2 5 5 4 4 6 6 6 3 4 4 4 5 9 9 14 15 17 19 20 19 19 15 15 14 13 13 11 8 9 7 9 2 8 6 7 10 17 25 35 40 38
5 4 1 2 2 2 3 2 4 3 3 4 4 4 5 5 9 13 13 13 14 14 13 10 14 13 13 12 15 14 14 6 3 1 6 4 1 2 2 11 24 30 34
4 5 3 4 1 2 3 5 2 1 4 4 3 4 4 5 7 15 15 14 14 14 11 17 15 12 10 15 12 7 5 6 2 3 0 3 2 2 1 2 6 28 31
4 3 5 5 5 4 4 6 4 1 5 4 4 4 5 6 8 7 9 11 10 8 7 4 5 7 8 12 18 15 10 10 4 1 4 4 3 3 1 1 2 11 19
Wind_Direction
170 167 167 162 171 165 160 146 147 148 143 143 146 148 150 155 156 157 159 159 155 159 157 157 160 165 167 166 166 162 155 138 148 151 136 113 102 105 109 106 103 99 92
175 175 176 172 168 162 151 150 156 154 146 150 144 151 151 160 162 162 163 163 161 163 163 162 164 162 165 169 167 168 171 162 163 163 160 158 152 155 149 138 146 125 125
179 178 177 169 162 165 153 136 132 135 131 141 145 148 153 161 167 166 166 166 169 172 167 167 169 164 165 167 165 162 162 162 162 156 153 145 142 139 135 139 136 138 129
182 181 179 173 158 167 157 146 147 150 146 146 140 153 152 158 165 172 172 173 174 176 178 178 176 172 174 172 172 171 170 168 167 162 160 157 156 153 150 149 144 141 135
183 183 175 167 162 167 172 168 157 159 161 143 142 131 142 155 170 168 178 182 182 182 181 184 181 180 175 182 181 178 176 178 176 173 170 172 168 162 152 151 151 142 140
182 181 177 170 164 173 179 176 164 133 161 150 132 97 86 105 163 179 185 188 189 190 186 183 188 183 188 188 191 190 185 184 186 183 182 180 174 173 164 161 164 155 153
183 182 181 169 178 183 186 170 152 146 126 134 105 67 36 31 202 206 196 187 194 197 194 191 193 188 193 196 197 199 197 194 192 188 188 187 182 180 179 177 175 167 164
181 183 185 181 184 179 176 175 175 164 119 171 143 125 157 303 241 214 200 197 197 196 200 200 196 194 193 197 201 208 204 201 201 199 194 187 190 189 184 186 185 180 177
182 190 183 178 181 183 186 185 183 178 168 186 173 150 148 209 135 183 215 206 197 198 204 198 201 197 195 198 201 211 215 207 204 200 197 196 196 198 188 190 193 187 189
187 186 183 178 179 184 187 186 186 186 177 178 178 194 133 142 178 182 236 212 201 205 202 198 201 200 199 200 204 207 217 216 212 206 202 201 200 200 197 196 199 191 191
186 179 181 180 182 186 189 184 178 186 191 177 195 188 124 118 108 138 177 187 208 214 207 204 203 204 202 202 206 209 215 218 214 210 206 200 201 202 202 203 201 198 201
187 184 181 182 182 185 186 184 186 187 191 196 193 195 197 174 173 150 127 159 208 212 207 208 207 202 205 209 211 210 216 219 219 217 210 201 199 203 204 206 208 206 205
191 184 185 183 186 187 187 183 185 189 190 192 194 201 205 206 149 150 132 138 156 158 186 208 211 208 205 207 215 213 215 219 221 219 217 211 199 202 202 208 212 210 209
194 186 191 189 191 190 185 186 190 195 193 203 203 201 205 206 190 171 168 145 135 179 186 198 207 207 204 205 211 213 214 218 220 221 218 213 211 202 203 204 209 210 213
180 166 182 180 197 195 192 190 194 196 198 199 206 204 209 205 208 195 187 183 192 177 219 207 197 209 211 208 210 205 212 215 218 220 218 216 212 206 204 204 209 210 215
173 163 166 178 195 197 192 193 202 200 198 202 205 201 204 208 206 203 200 201 207 222 238 186 208 184 199 206 210 205 211 210 215 218 217 216 213 209 205 203 202 209 209
162 175 186 186 194 196 197 195 199 199 200 203 206 208 208 204 201 201 199 206 212 213 227 218 189 191 189 202 205 206 209 208 214 214 214 214 213 212 204 202 203 203 204
68 74 110 169 183 187 191 199 206 198 198 206 207 212 213 210 211 205 205 208 211 212 212 234 170 175 197 203 199 199 205 211 213 215 212 211 212 209 204 200 202 202 203
75 56 42 76 58 45 197 192 189 192 202 218 216 210 214 214 218 209 201 206 210 214 212 221 226 135 179 172 197 205 206 210 214 218 211 212 212 208 203 200 199 199 199
61 68 64 51 59 28 37 7 213 206 203 189 212 216 213 222 228 215 208 212 215 214 211 210 225 174 165 191 182 194 204 209 220 217 211 209 214 214 205 201 201 196 199
42 31 79 85 49 91 43 13 17 317 223 218 209 212 212 213 197 202 206 208 212 214 213 210 219 212 165 168 201 192 211 188 214 195 213 208 211 211 209 208 207 201 199
99 49 293 71 119 87 66 40 24 335 338 298 218 219 221 206 205 204 207 207 203 205 214 210 211 217 216 215 213 202 186 149 233 214 204 215 193 204 203 210 212 209 200
17 73 55 55 37 49 44 28 18 0 330 321 339 285 220 210 207 210 208 212 210 210 210 205 210 205 212 202 200 188 194 203 214 216 196 220 188 216 210 215 213 210 205
351 341 357 187 131 32 356 44 350 322 292 303 315 313 324 279 210 212 212 215 224 223 220 219 216 216 208 191 199 201 205 192 71 165 168 197 206 159 331 226 215 208 199
351 293 286 264 272 266 313 314 309 238 276 275 279 295 291 285 305 215 214 217 222 226 218 213 218 217 191 177 178 135 142 153 210 227 132 124 161 96 38 322 215 200 196
303 315 289 279 273 267 255 282 290 298 294 305 290 261 253 273 290 288 244 226 222 221 202 212 223 232 208 190 166 189 174 192 147 144 225 125 122 136 224 243 334 188 195